Location: Dzierzno
(50.6159°N, 19.2852°E)
Time: 01:00:02
(UTC+00:00)

UNK - Pass Details

Date: 18 November 2025
Orbit: 655 x 672 km, 98.4° (Epoch: 05 December)

Event Time Altitude Azimuth Distance (km) Brightness Sun altitude
Rises 15:21:00 0° 21° (NNE) 3,035 6.7 -4.8°
Reaches altitude 10° 15:23:25 10° 30° (NNE) 2,116 5.8 -5.1°
Maximum altitude 15:27:40 36° 97° (E) 1,076 4.4 -5.8°
Drops below altitude 10° 15:31:53 10° 164° (SSE) 2,098 6.4 -6.4°
Sets 15:34:16 0° 173° (S) 3,006 7.3 -6.7°
